• Em Portugal
  • Lista de países
  • Para 7 dias
  • Temperatura da água
  • Mapas de satélite
  • Mapa do tempo
  • Widgets de tempo
  • user-avatar
    Iniciar Sessão

    Previsão horária em Lezhe

    Hoje, 23 Setembro, Domingo

    Tempo Temperatura Precipitação Vento Pressão Humidade
    00:00 +21°C° 0 mm 1 m/s 740 mmHg 72%
    01:00 +20°C° 0 mm 1 m/s 740 mmHg 72%
    02:00 +20°C° 0 mm 1 m/s 740 mmHg 73%
    03:00 +20°C° 0 mm 1 m/s 740 mmHg 74%
    04:00 +20°C° 0 mm 1 m/s 740 mmHg 74%
    05:00 +21°C° 0 mm 1 m/s 740 mmHg 70%
    06:00 +22°C° 0 mm 1 m/s 740 mmHg 66%
    07:00 +23°C° 0 mm 1 m/s 740 mmHg 62%
    08:00 +26°C° 0 mm 1 m/s 741 mmHg 55%
    09:00 +28°C° 0 mm 1 m/s 741 mmHg 47%
    10:00 +30°C° 0 mm 1 m/s 741 mmHg 39%
    11:00 +31°C° 0 mm 1 m/s 741 mmHg 37%
    12:00 +31°C° 0 mm 2 m/s 741 mmHg 35%
    13:00 +33°C° 0 mm 3 m/s 740 mmHg 32%
    14:00 +31°C° 0 mm 2 m/s 740 mmHg 35%
    15:00 +31°C° 0 mm 2 m/s 740 mmHg 37%
    16:00 +30°C° 0 mm 2 m/s 739 mmHg 40%
    17:00 +27°C° 0 mm 2 m/s 739 mmHg 48%
    18:00 +25°C° 0 mm 1 m/s 739 mmHg 57%
    19:00 +22°C° 0 mm 1 m/s 739 mmHg 65%
    20:00 +22°C° 0 mm 1 m/s 739 mmHg 65%
    21:00 +22°C° 0 mm 1 m/s 739 mmHg 65%
    22:00 +21°C° 0 mm 1 m/s 739 mmHg 65%
    23:00 +20°C° 0 mm 2 m/s 739 mmHg 64%

    Amanhã, 24 Setembro, Segunda-feira

    Tempo Temperatura Precipitação Vento Pressão Humidade
    00:00 +20°C° 0 mm 2 m/s 739 mmHg 64%
    01:00 +20°C° 0 mm 2 m/s 738 mmHg 63%
    02:00 +19°C° 0 mm 2 m/s 738 mmHg 63%
    03:00 +19°C° 0 mm 2 m/s 738 mmHg 63%
    04:00 +19°C° 0 mm 2 m/s 737 mmHg 63%
    05:00 +20°C° 0 mm 2 m/s 737 mmHg 59%
    06:00 +21°C° 0 mm 2 m/s 737 mmHg 56%
    07:00 +23°C° 0 mm 2 m/s 737 mmHg 52%
    08:00 +25°C° 0 mm 2 m/s 737 mmHg 48%
    09:00 +27°C° 0 mm 2 m/s 737 mmHg 44%
    10:00 +29°C° 0 mm 2 m/s 738 mmHg 40%
    11:00 +29°C° 0 mm 2 m/s 738 mmHg 40%
    12:00 +29°C° 0 mm 3 m/s 738 mmHg 40%
    13:00 +30°C° 0 mm 3 m/s 738 mmHg 40%
    14:00 +28°C° 0.2 mm 3 m/s 738 mmHg 45%
    15:00 +27°C° 0.2 mm 3 m/s 738 mmHg 49%
    16:00 +25°C° 0.2 mm 4 m/s 738 mmHg 54%
    17:00 +22°C° 0.2 mm 4 m/s 739 mmHg 57%
    18:00 +20°C° 0.2 mm 5 m/s 740 mmHg 60%
    19:00 +16°C° 0.2 mm 6 m/s 740 mmHg 62%
    20:00 +16°C° 0 mm 6 m/s 741 mmHg 62%
    21:00 +15°C° 0 mm 6 m/s 741 mmHg 61%
    22:00 +15°C° 0 mm 6 m/s 742 mmHg 60%
    23:00 +15°C° 0 mm 6 m/s 742 mmHg 60%

    Depois de amanhã, 25 Setembro, Terça-feira

    Tempo Temperatura Precipitação Vento Pressão Humidade
    00:00 +14°C° 0 mm 6 m/s 742 mmHg 60%
    01:00 +14°C° 0 mm 7 m/s 743 mmHg 60%
    02:00 +12°C° 0 mm 7 m/s 743 mmHg 60%
    03:00 +12°C° 0 mm 7 m/s 743 mmHg 59%
    04:00 +11°C° 0 mm 7 m/s 743 mmHg 58%
    05:00 +11°C° 0 mm 7 m/s 743 mmHg 56%
    06:00 +12°C° 0 mm 7 m/s 744 mmHg 54%
    07:00 +12°C° 0 mm 7 m/s 744 mmHg 53%
    08:00 +15°C° 0 mm 7 m/s 744 mmHg 46%
    09:00 +16°C° 0 mm 7 m/s 744 mmHg 39%
    10:00 +18°C° 0 mm 7 m/s 744 mmHg 32%
    11:00 +20°C° 0 mm 6 m/s 744 mmHg 30%
    12:00 +21°C° 0 mm 6 m/s 744 mmHg 27%
    13:00 +22°C° 0 mm 6 m/s 744 mmHg 24%
    14:00 +22°C° 0 mm 6 m/s 743 mmHg 26%
    15:00 +21°C° 0 mm 6 m/s 743 mmHg 27%
    16:00 +20°C° 0 mm 6 m/s 743 mmHg 28%
    17:00 +17°C° 0 mm 6 m/s 744 mmHg 32%
    18:00 +15°C° 0 mm 6 m/s 745 mmHg 36%
    19:00 +13°C° 0 mm 6 m/s 745 mmHg 40%
    20:00 +11°C° 0 mm 6 m/s 746 mmHg 42%
    21:00 +10°C° 0 mm 6 m/s 746 mmHg 44%
    22:00 +10°C° 0 mm 6 m/s 747 mmHg 46%
    23:00 +9°C° 0 mm 6 m/s 747 mmHg 47%

    26 Setembro, Quarta-feira

    Tempo Temperatura Precipitação Vento Pressão Humidade
    00:00 +8°C° 0 mm 6 m/s 747 mmHg 47%
    01:00 +8°C° 0 mm 6 m/s 747 mmHg 47%
    02:00 +8°C° 0 mm 6 m/s 747 mmHg 48%
    03:00 +7°C° 0 mm 6 m/s 747 mmHg 48%
    04:00 +7°C° 0 mm 6 m/s 747 mmHg 49%
    05:00 +8°C° 0 mm 6 m/s 747 mmHg 47%
    06:00 +8°C° 0 mm 6 m/s 747 mmHg 45%
    07:00 +9°C° 0 mm 6 m/s 748 mmHg 43%
    08:00 +11°C° 0 mm 6 m/s 748 mmHg 37%
    09:00 +15°C° 0 mm 6 m/s 748 mmHg 31%
    10:00 +17°C° 0 mm 5 m/s 748 mmHg 25%
    11:00 +19°C° 0 mm 5 m/s 747 mmHg 23%
    12:00 +20°C° 0 mm 5 m/s 747 mmHg 21%
    13:00 +21°C° 0 mm 5 m/s 747 mmHg 20%
    14:00 +21°C° 0 mm 5 m/s 746 mmHg 20%
    15:00 +21°C° 0 mm 4 m/s 746 mmHg 21%
    16:00 +20°C° 0 mm 4 m/s 746 mmHg 22%
    17:00 +18°C° 0 mm 4 m/s 747 mmHg 26%
    18:00 +14°C° 0 mm 4 m/s 747 mmHg 30%
    19:00 +12°C° 0 mm 4 m/s 747 mmHg 34%
    20:00 +11°C° 0 mm 4 m/s 748 mmHg 36%
    21:00 +10°C° 0 mm 4 m/s 748 mmHg 38%
    22:00 +10°C° 0 mm 4 m/s 748 mmHg 40%
    23:00 +8°C° 0 mm 4 m/s 748 mmHg 41%

    27 Setembro, Quinta-feira

    Tempo Temperatura Precipitação Vento Pressão Humidade
    00:00 +8°C° 0 mm 4 m/s 748 mmHg 42%
    01:00 +8°C° 0 mm 4 m/s 748 mmHg 43%
    02:00 +8°C° 0 mm 4 m/s 747 mmHg 42%
    03:00 +9°C° 0 mm 3 m/s 747 mmHg 42%
    04:00 +9°C° 0 mm 3 m/s 747 mmHg 41%
    05:00 +10°C° 0 mm 3 m/s 747 mmHg 39%
    06:00 +11°C° 0 mm 3 m/s 747 mmHg 36%
    07:00 +12°C° 0 mm 3 m/s 746 mmHg 34%
    08:00 +16°C° 0 mm 3 m/s 746 mmHg 28%
    09:00 +19°C° 0 mm 2 m/s 746 mmHg 23%
    10:00 +23°C° 0 mm 2 m/s 746 mmHg 18%
    11:00 +24°C° 0 mm 3 m/s 745 mmHg 17%
    12:00 +25°C° 0 mm 3 m/s 745 mmHg 16%
    13:00 +26°C° 0 mm 4 m/s 744 mmHg 15%
    14:00 +26°C° 0 mm 4 m/s 744 mmHg 18%
    15:00 +25°C° 0 mm 4 m/s 743 mmHg 21%
    16:00 +25°C° 0 mm 4 m/s 743 mmHg 23%
    17:00 +21°C° 0 mm 4 m/s 743 mmHg 26%
    18:00 +19°C° 0 mm 4 m/s 743 mmHg 29%
    19:00 +16°C° 0 mm 3 m/s 743 mmHg 32%
    20:00 +16°C° 0 mm 3 m/s 743 mmHg 31%
    21:00 +14°C° 0 mm 3 m/s 743 mmHg 30%
    22:00 +14°C° 0 mm 3 m/s 743 mmHg 29%
    23:00 +14°C° 0 mm 3 m/s 742 mmHg 29%

    28 Setembro, Sexta-feira

    Tempo Temperatura Precipitação Vento Pressão Humidade
    00:00 +14°C° 0 mm 3 m/s 742 mmHg 29%
    01:00 +13°C° 0 mm 3 m/s 742 mmHg 28%
    02:00 +13°C° 0 mm 3 m/s 742 mmHg 28%
    03:00 +13°C° 0 mm 3 m/s 741 mmHg 27%
    04:00 +13°C° 0 mm 4 m/s 741 mmHg 27%
    05:00 +14°C° 0 mm 4 m/s 741 mmHg 27%
    06:00 +15°C° 0 mm 4 m/s 741 mmHg 28%
    07:00 +17°C° 0 mm 4 m/s 741 mmHg 28%
    08:00 +19°C° 0 mm 3 m/s 741 mmHg 27%
    09:00 +22°C° 0 mm 3 m/s 741 mmHg 25%
    10:00 +26°C° 0 mm 3 m/s 740 mmHg 23%
    11:00 +27°C° 0 mm 3 m/s 740 mmHg 24%
    12:00 +28°C° 0 mm 3 m/s 740 mmHg 24%
    13:00 +29°C° 0 mm 3 m/s 739 mmHg 25%
    14:00 +28°C° 0 mm 3 m/s 739 mmHg 27%
    15:00 +28°C° 0 mm 4 m/s 739 mmHg 29%
    16:00 +27°C° 0 mm 4 m/s 738 mmHg 30%
    17:00 +25°C° 0 mm 4 m/s 739 mmHg 36%
    18:00 +21°C° 0 mm 3 m/s 739 mmHg 42%
    19:00 +19°C° 0 mm 3 m/s 739 mmHg 47%
    20:00 +18°C° 0 mm 3 m/s 739 mmHg 48%
    21:00 +18°C° 0 mm 3 m/s 739 mmHg 48%
    22:00 +17°C° 0 mm 3 m/s 739 mmHg 48%
    23:00 +17°C° 0 mm 3 m/s 739 mmHg 49%
    Mostrar mais